{"data":{"norad_id":48659,"epoch":"2026-05-25T02:33:03.233088Z","epoch_age_seconds":65785,"freshness":"FRESH","line1":"1 48659U 21044X   26145.10628742  .00001036  00000+0  45140-4 0  9998","line2":"2 48659  53.1597 118.4392 0001379  81.7950 278.3208 15.31694370275533","mean_motion":15.3169437,"eccentricity":0.0001379,"inclination_deg":53.1597,"raan_deg":118.4392,"arg_perigee_deg":81.795,"mean_anomaly_deg":278.3208,"bstar":4.514e-5,"rev_number":27553,"period_min":94.013533522357,"perigee_km":469.8123155621,"apogee_km":471.70124046608,"semimajor_km":6848.8937780141,"source":"CELESTRAK","updated_at":"2026-05-25T13:38:16.757033Z"}}